Flag for Cabo Verde Weather past 2 weeks in Santa Maria, Cabo Verde

Now
79 °F

Broken clouds.


Feels Like: 81 °F
Forecast: N/A
Wind: 10 mph from Northeast

Location: Sal

Current Time: Jul 25, 2014 at 5:40:54 PM

Latest Report: Jul 25, 2014 at 5:00 PM


Visibility: N/A

Pressure: 29.92 "Hg

Humidity: 65%

Dew point: 66 °F

Location of Santa MariaLocation

Historic Weather in Santa Maria — Graph

°F

Santa Maria temperature yesterday

Maximum temperature yesterday: 82 °F (at 11:00 AM)
Minimum temperature yesterday: 75 °F (at 12:00 AM)
Average temperature yesterday: 77 °F

Past Weeks' High & Low Weather Summary

 TemperatureHumidityPressure
High84 °F (Jul 21, 2:00 PM)89% (Jul 22, 1:00 AM)30.09 "Hg (Jul 22, 1:00 AM)
Low68 °F (Jul 11, 4:00 AM)51% (Jul 24, 11:00 AM)29.95 "Hg (Jul 14, 6:00 PM)
Average76 °F71%30.03 "Hg
* Reported Jul 10 3:00 PM — Jul 25 3:00 PM, Santa Maria, Weather by CustomWeather, © 2014

Note: Actual official high and low records may vary slightly from our data, if they occured in-between our weather recording intervals... More about our weather records

Advertising

Santa Maria weather history for previous 24 hours

 ConditionsComfort  
Time TempWeatherWind HumidityBarometerVisibility
3:00 PM
Jul 25
81 °FPartly sunny.16 mph58%29.95 "HgN/A
2:00 PM79 °FBroken clouds.16 mph65%29.95 "HgN/A
1:00 PM81 °FPartly sunny.14 mph58%29.98 "HgN/A
12:00 PM81 °FPartly sunny.15 mph58%29.95 "HgN/A
11:00 AM81 °FPartly sunny.16 mph58%29.98 "HgN/A
10:00 AM79 °FPartly sunny.13 mph61%29.98 "HgN/A
9:00 AM77 °FPartly sunny.13 mph61%29.98 "HgN/A
8:00 AM75 °FScattered clouds.14 mph65%29.98 "HgN/A
7:00 AM75 °FBroken clouds.13 mph74%29.98 "HgN/A
6:00 AM73 °FPartly sunny.12 mph74%29.95 "HgN/A
5:00 AM73 °FPartly sunny.9 mph78%29.95 "HgN/A
4:00 AM75 °FPassing clouds.10 mph69%29.98 "HgN/A
3:00 AM75 °FPassing clouds.13 mph74%29.98 "HgN/A
2:00 AM75 °FPassing clouds.10 mph74%29.98 "HgN/A
1:00 AM75 °FPassing clouds.13 mph74%30.01 "HgN/A
12:00 AM75 °FPassing clouds.9 mph78%30.01 "HgN/A
11:00 PM
Jul 24
75 °FPassing clouds.12 mph74%30.01 "HgN/A
10:00 PM75 °FPassing clouds.12 mph74%30.01 "HgN/A
9:00 PM75 °FPassing clouds.10 mph74%30.01 "HgN/A
8:00 PM75 °FPassing clouds.14 mph69%29.98 "HgN/A
7:00 PM77 °FPassing clouds.16 mph65%29.98 "HgN/A
6:00 PM79 °FPassing clouds.15 mph65%29.95 "HgN/A
5:00 PM79 °FPartly sunny.14 mph61%29.95 "HgN/A
Weather by CustomWeather, © 2014

See weather overviewHow to use our weather pages